Probability
0 0 0 0 0 0 0 0 0 0 0 0 0 0 3 3 3 23 90 100 94 94 94 100 100 100 100 100 100 100 100 100 100 100 100 100 100 100 100 100 100 100 100 100 100 100 100 100 100
0 0 0 0 0 0 0 0 0 0 0 0 0 3 6 10 29 71 97 100 100 97 94 97 100 100 100 100 100 100 100 100 100 100 100 100 100 100 100 100 100 100 100 100 100 100 100 100 100
0 0 0 0 0 0 0 0 0 0 0 3 0 6 19 45 55 84 97 100 100 94 100 100 100 100 100 100 100 100 100 100 100 100 100 100 100 100 100 100 100 100 100 100 100 100 100 100 100
0 0 0 0 0 0 0 0 0 0 0 3 6 35 55 74 71 100 97 100 97 97 100 100 100 100 100 100 100 100 100 100 100 100 100 100 100 100 100 100 100 100 100 100 100 100 100 100 100
0 0 0 0 0 0 0 0 0 0 0 3 6 42 77 84 87 100 100 100 97 97 100 100 100 100 100 100 100 100 100 100 100 100 100 100 100 100 100 100 100 100 100 100 100 100 100 100 100
0 0 0 0 0 0 0 0 0 0 3 6 23 45 77 90 94 100 100 100 94 100 100 100 100 100 100 100 100 100 100 100 100 100 100 100 100 100 100 100 100 100 100 100 100 100 100 100 100
0 0 0 0 0 0 0 0 3 0 6 23 39 61 77 87 97 100 100 97 97 100 100 100 100 100 100 100 100 100 100 100 100 100 100 100 100 100 100 100 100 100 100 100 100 100 100 100 97
0 0 0 0 0 0 0 3 3 16 29 39 45 55 77 90 94 97 97 97 94 97 97 100 100 100 100 100 100 100 100 100 100 100 100 100 100 100 100 100 100 100 100 100 100 100 97 97 94
0 0 0 0 0 0 0 0 13 26 35 42 61 68 81 90 97 97 97 97 97 97 97 97 97 100 100 100 100 100 100 100 100 100 100 100 100 97 100 97 100 100 100 100 100 100 97 94 90
0 0 0 0 0 0 0 3 6 26 32 58 61 81 81 94 94 97 97 97 97 94 94 94 97 97 100 100 100 100 100 100 100 97 97 100 97 97 94 97 97 100 100 100 100 100 97 87 84
0 0 0 0 0 0 0 3 6 19 26 45 52 71 81 84 90 90 90 90 90 90 90 90 94 97 97 100 100 100 100 100 100 97 94 94 94 97 94 97 97 97 100 100 100 97 84 65 65
0 0 0 0 0 0 0 3 19 23 29 39 42 61 77 81 81 87 90 90 90 87 87 87 87 94 94 97 100 100 100 100 97 97 97 97 97 94 97 97 97 97 97 100 97 97 77 61 48
0 0 0 0 0 0 3 6 16 26 29 39 52 61 65 65 71 81 81 84 84 84 81 77 84 87 90 97 97 97 97 100 100 100 97 97 97 97 94 94 97 94 97 100 100 81 81 71 58
0 0 0 0 0 3 3 3 23 29 32 39 42 48 52 55 65 71 74 81 71 68 68 68 77 81 87 90 94 94 94 100 94 94 94 97 97 94 90 90 94 97 94 90 94 77 94 77 74
0 0 0 3 3 3 3 3 19 26 39 35 39 45 42 39 45 61 61 58 61 68 68 71 71 71 74 81 81 81 87 87 94 94 94 94 94 94 94 90 90 94 97 97 97 94 84 87 77
0 0 0 0 3 3 0 3 19 29 29 26 35 39 39 35 35 39 45 45 52 58 61 65 58 71 74 71 84 81 87 87 87 87 84 74 81 87 87 84 87 87 97 97 97 97 94 87 74
0 0 0 0 0 0 0 3 23 26 23 29 35 32 29 29 23 23 26 29 35 55 55 55 61 61 65 71 77 77 87 87 81 77 71 68 74 68 84 84 87 87 87 94 87 90 87 77 58
0 0 0 0 0 0 0 6 23 26 26 29 26 26 23 23 19 19 23 29 29 29 39 45 52 58 55 71 74 77 68 68 68 61 65 65 65 61 58 65 74 74 77 90 87 84 81 71 61
0 0 0 0 0 0 0 10 16 16 26 26 23 29 16 16 13 16 16 19 23 23 23 29 35 42 52 55 61 65 61 71 65 58 45 48 42 58 55 52 55 55 71 74 71 74 65 58 42
0 0 0 0 0 3 3 13 19 19 26 26 19 23 13 13 10 13 16 16 19 19 16 19 16 23 35 39 48 61 52 55 61 45 48 45 39 32 32 48 52 55 61 52 61 55 52 42 26
0 0 0 0 0 3 6 13 19 19 19 32 19 16 16 3 13 13 13 16 16 16 16 16 19 19 19 23 35 45 55 45 29 35 42 35 35 29 35 35 48 48 52 52 52 39 39 32 29
0 0 0 0 0 3 3 0 16 19 23 23 19 23 13 10 10 10 6 10 13 13 16 16 19 19 16 19 29 32 39 35 26 29 29 29 29 29 29 35 35 45 45 45 35 32 32 29 23
0 0 0 0 0 0 0 0 6 26 26 29 26 16 10 10 10 10 6 10 10 10 13 16 19 19 13 13 16 23 23 26 26 23 29 29 29 26 26 29 32 32 32 29 23 23 26 23 23
0 0 0 0 0 0 0 0 0 3 10 10 23 13 6 6 6 6 6 6 10 10 13 13 16 16 10 10 13 16 16 16 16 19 19 19 26 16 16 19 26 23 23 29 23 16 13 16 16
0 0 0 0 0 0 0 0 3 6 6 10 16 13 6 3 3 6 6 6 10 6 6 6 6 10 10 6 13 13 13 13 10 16 16 16 10 10 10 10 19 19 16 16 13 13 10 16 13
0 0 0 0 0 0 0 0 6 3 6 10 13 10 6 3 3 6 6 6 10 6 6 6 3 3 3 0 6 10 10 6 3 6 10 10 10 6 6 6 10 6 3 6 10 10 10 6 3
0 0 0 0 0 0 0 0 3 0 6 6 6 3 6 3 3 6 6 3 6 6 6 10 6 6 0 0 0 3 3 3 3 0 3 6 6 6 6 3 3 3 3 3 6 6 3 0 0
0 0 0 0 0 0 0 0 0 13 0 6 6 6 3 0 3 3 3 3 3 0 0 3 3 3 0 0 0 0 0 0 0 0 3 6 6 6 3 3 3 3 3 3 3 3 3 0 0
0 0 0 0 0 0 0 0 0 6 10 10 6 3 0 0 3 3 3 3 3 3 0 3 3 0 0 0 0 0 0 0 0 0 0 6 3 3 0 0 0 0 0 0 0 0 0 0 0
0 0 0 0 0 0 0 0 0 0 3 6 6 3 0 3 3 3 3 0 3 3 0 0 0 0 0 0 0 0 0 0 0 0 0 3 0 0 0 0 0 0 0 0 0 0 0 0 0
Height
5874 5876 5878 5880 5882 5883 5884 5883 5883 5885 5887 5889 5892 5894 5895 5896 5898 5900 5898 5897 5898 5898 5899 5899 5900 5901 5902 5903 5904 5905 5906 5906 5907 5907 5907 5907 5908 5908 5908 5909 5909 5909 5910 5910 5910 5910 5910 5910 5910
5870 5872 5874 5876 5878 5880 5880 5878 5879 5881 5884 5887 5889 5891 5892 5893 5894 5895 5895 5895 5896 5896 5897 5898 5899 5900 5900 5901 5902 5903 5904 5905 5906 5906 5906 5906 5907 5907 5907 5908 5908 5909 5909 5909 5909 5909 5909 5910 5910
5865 5867 5870 5872 5874 5876 5875 5874 5876 5878 5882 5884 5886 5888 5890 5891 5891 5892 5893 5893 5894 5894 5895 5896 5897 5898 5899 5900 5901 5902 5903 5903 5904 5904 5905 5905 5905 5906 5906 5907 5907 5908 5908 5908 5908 5908 5908 5909 5909
5860 5863 5866 5868 5869 5869 5869 5871 5873 5876 5879 5882 5884 5886 5887 5888 5889 5890 5891 5891 5892 5892 5893 5894 5895 5896 5897 5898 5899 5900 5901 5901 5902 5903 5903 5904 5904 5905 5905 5906 5906 5907 5907 5907 5907 5907 5907 5908 5908
5856 5858 5861 5863 5863 5864 5866 5868 5870 5873 5876 5879 5881 5883 5884 5885 5886 5888 5888 5889 5890 5890 5891 5892 5893 5894 5895 5895 5896 5897 5898 5899 5900 5901 5901 5902 5903 5903 5904 5904 5905 5905 5905 5905 5906 5906 5906 5906 5907
5853 5855 5858 5858 5858 5860 5862 5865 5867 5870 5873 5876 5879 5880 5881 5883 5884 5885 5886 5887 5888 5888 5889 5889 5890 5891 5892 5893 5894 5895 5896 5897 5897 5898 5899 5900 5900 5901 5902 5902 5903 5903 5904 5904 5904 5904 5905 5905 5905
5849 5851 5853 5854 5855 5857 5859 5861 5864 5867 5870 5873 5876 5877 5878 5879 5881 5882 5883 5884 5885 5886 5886 5887 5887 5888 5889 5890 5891 5892 5893 5894 5895 5895 5896 5897 5898 5898 5899 5900 5900 5901 5902 5902 5902 5903 5903 5903 5903
5844 5847 5848 5850 5851 5853 5855 5858 5861 5864 5867 5870 5873 5874 5875 5877 5878 5880 5881 5882 5882 5883 5884 5884 5884 5885 5886 5887 5888 5889 5890 5891 5892 5892 5893 5894 5895 5895 5896 5897 5898 5898 5899 5900 5900 5900 5901 5901 5901
5840 5844 5845 5846 5848 5849 5852 5855 5858 5861 5864 5867 5869 5871 5873 5874 5876 5877 5878 5879 5879 5880 5880 5881 5882 5882 5883 5884 5885 5885 5886 5887 5888 5889 5889 5890 5891 5892 5893 5894 5895 5896 5896 5897 5898 5898 5899 5899 5899
5836 5839 5840 5842 5844 5846 5849 5852 5855 5859 5861 5864 5866 5868 5870 5872 5873 5875 5875 5876 5876 5877 5877 5878 5878 5879 5879 5880 5881 5882 5882 5883 5884 5885 5886 5886 5887 5888 5889 5890 5891 5892 5893 5894 5895 5895 5896 5896 5897
5832 5834 5836 5838 5840 5843 5846 5849 5853 5856 5858 5860 5863 5865 5868 5869 5870 5871 5872 5872 5873 5873 5873 5874 5874 5875 5876 5876 5877 5878 5878 5879 5880 5881 5881 5882 5883 5883 5884 5886 5887 5887 5889 5890 5891 5892 5893 5893 5894
5829 5830 5833 5835 5838 5840 5843 5846 5849 5852 5855 5858 5860 5862 5864 5866 5867 5867 5868 5868 5868 5869 5869 5870 5870 5870 5871 5872 5873 5874 5874 5875 5876 5876 5877 5878 5878 5879 5880 5881 5882 5883 5884 5885 5887 5888 5889 5890 5891
5826 5828 5830 5833 5835 5838 5841 5843 5846 5849 5852 5854 5857 5859 5861 5861 5862 5863 5863 5863 5864 5864 5865 5865 5866 5866 5867 5867 5868 5869 5870 5870 5871 5872 5873 5873 5874 5874 5875 5876 5878 5879 5879 5880 5882 5883 5885 5886 5887
5823 5825 5828 5830 5833 5836 5839 5841 5844 5846 5849 5851 5853 5855 5856 5856 5857 5858 5858 5859 5859 5859 5859 5860 5861 5861 5861 5862 5862 5863 5864 5865 5865 5867 5867 5868 5868 5869 5870 5871 5873 5874 5874 5875 5877 5879 5880 5881 5883
5821 5824 5827 5829 5831 5834 5837 5839 5841 5844 5846 5848 5849 5850 5851 5852 5852 5852 5853 5853 5853 5854 5854 5854 5855 5855 5856 5856 5857 5857 5858 5859 5860 5860 5861 5862 5862 5863 5864 5865 5867 5868 5869 5870 5872 5873 5875 5876 5878
5820 5824 5826 5827 5830 5832 5837 5838 5839 5840 5842 5844 5845 5846 5846 5847 5847 5847 5847 5848 5848 5848 5848 5848 5849 5849 5850 5850 5850 5851 5852 5853 5853 5854 5855 5855 5856 5857 5858 5859 5861 5862 5863 5865 5867 5868 5870 5871 5873
5820 5824 5826 5826 5828 5830 5834 5835 5836 5837 5838 5839 5840 5841 5841 5841 5841 5841 5842 5842 5842 5842 5842 5842 5842 5843 5843 5843 5844 5845 5845 5846 5847 5847 5848 5848 5849 5850 5851 5853 5854 5855 5857 5859 5861 5862 5864 5866 5867
5820 5822 5823 5825 5826 5829 5831 5831 5833 5834 5835 5835 5836 5836 5836 5836 5836 5836 5836 5835 5835 5835 5836 5836 5836 5836 5836 5836 5837 5837 5838 5839 5839 5840 5841 5841 5842 5843 5844 5845 5846 5849 5851 5853 5854 5856 5858 5859 5861
5817 5820 5822 5823 5824 5826 5828 5828 5829 5830 5831 5831 5831 5831 5831 5831 5830 5830 5829 5829 5829 5829 5829 5829 5829 5829 5829 5829 5829 5829 5830 5831 5832 5833 5833 5834 5835 5836 5837 5838 5839 5842 5844 5846 5847 5849 5850 5852 5854
5815 5818 5820 5821 5822 5824 5825 5826 5826 5826 5827 5827 5827 5826 5826 5825 5825 5824 5823 5822 5822 5822 5822 5822 5821 5821 5821 5821 5822 5822 5822 5823 5824 5825 5825 5826 5827 5828 5828 5830 5831 5834 5836 5838 5840 5842 5843 5845 5847
5814 5817 5818 5819 5820 5821 5823 5823 5823 5823 5823 5822 5822 5821 5821 5820 5819 5818 5817 5816 5815 5815 5815 5814 5814 5814 5813 5814 5814 5814 5815 5815 5816 5817 5818 5818 5819 5820 5821 5823 5824 5827 5829 5831 5832 5834 5836 5837 5839
5813 5814 5815 5817 5819 5820 5821 5823 5820 5819 5818 5818 5817 5816 5815 5814 5813 5812 5811 5809 5808 5808 5808 5808 5807 5807 5807 5807 5807 5807 5808 5808 5809 5809 5810 5811 5812 5813 5815 5816 5818 5819 5821 5823 5824 5826 5828 5830 5832
5811 5812 5814 5815 5817 5818 5818 5819 5819 5816 5815 5814 5813 5811 5810 5809 5808 5806 5804 5803 5802 5802 5801 5801 5800 5800 5800 5800 5800 5800 5800 5801 5801 5802 5802 5803 5804 5805 5807 5808 5810 5811 5813 5815 5816 5818 5820 5822 5824
5809 5811 5812 5813 5815 5816 5816 5816 5816 5812 5811 5810 5808 5807 5805 5804 5802 5800 5799 5797 5796 5796 5795 5795 5794 5794 5793 5793 5793 5793 5793 5793 5794 5794 5795 5795 5797 5798 5799 5801 5802 5804 5806 5807 5809 5811 5812 5814 5816
5808 5811 5813 5814 5814 5815 5812 5812 5812 5809 5807 5806 5804 5803 5801 5799 5797 5795 5793 5792 5791 5790 5790 5789 5789 5788 5787 5787 5787 5786 5786 5787 5787 5787 5788 5788 5789 5791 5792 5793 5795 5797 5798 5800 5802 5803 5805 5807 5808
5806 5809 5812 5813 5813 5812 5809 5808 5808 5805 5803 5802 5800 5798 5796 5794 5792 5790 5789 5787 5786 5785 5785 5784 5783 5782 5782 5781 5781 5781 5780 5780 5781 5781 5781 5782 5783 5784 5785 5786 5788 5790 5791 5793 5795 5797 5798 5800 5802
5804 5806 5807 5808 5808 5808 5807 5805 5803 5802 5800 5798 5796 5794 5792 5790 5788 5786 5785 5783 5782 5781 5780 5779 5778 5777 5776 5776 5775 5775 5775 5775 5775 5775 5775 5775 5776 5777 5778 5780 5781 5783 5785 5786 5788 5790 5792 5793 5795
5802 5802 5803 5804 5805 5805 5805 5803 5802 5798 5796 5795 5793 5791 5789 5787 5785 5783 5781 5779 5778 5776 5775 5773 5772 5772 5771 5771 5770 5769 5769 5769 5769 5769 5769 5770 5770 5771 5772 5773 5775 5776 5778 5780 5781 5783 5785 5786 5788
5799 5800 5800 5801 5801 5802 5802 5803 5797 5795 5793 5791 5789 5787 5785 5783 5780 5778 5776 5775 5773 5771 5770 5768 5767 5766 5766 5765 5765 5764 5764 5763 5763 5763 5763 5764 5764 5765 5766 5767 5768 5770 5772 5773 5775 5777 5778 5780 5781
5795 5796 5797 5798 5797 5797 5797 5799 5792 5790 5789 5787 5785 5783 5781 5778 5776 5774 5772 5770 5768 5766 5765 5763 5762 5761 5760 5760 5759 5758 5758 5758 5758 5758 5758 5758 5759 5759 5760 5761 5762 5764 5765 5767 5768 5770 5772 5773 5774
Wind_Speed
24 22 21 20 19 19 19 21 22 20 18 16 14 13 12 12 11 10 8 8 8 9 9 9 10 9 9 9 9 9 9 9 9 9 9 9 8 7 6 5 4 3 2 1 1 1 2 1 1
24 23 22 21 20 18 20 24 24 23 19 16 15 15 13 13 12 11 9 9 9 9 10 9 10 10 10 10 10 10 10 10 10 9 9 9 9 8 6 6 4 3 2 1 1 0 1 1 1
24 23 22 21 20 19 23 26 26 23 20 18 17 16 15 14 13 11 9 9 10 10 10 10 10 11 11 11 11 12 12 12 12 11 10 10 9 9 8 7 6 5 4 3 3 2 2 2 2
22 22 22 21 21 24 27 27 26 24 21 20 18 17 16 14 13 11 10 9 10 10 11 11 11 11 11 12 12 13 13 13 13 13 13 12 11 11 10 9 8 7 6 5 5 4 4 4 3
21 21 20 21 23 26 27 27 26 25 23 21 20 19 18 15 14 13 11 9 10 11 12 11 11 11 12 13 13 14 15 15 15 15 15 14 14 13 12 11 10 9 9 8 7 6 6 5 5
19 19 19 20 23 26 27 27 27 26 25 22 20 20 20 17 15 13 12 10 11 12 12 13 13 13 13 14 14 15 15 16 16 16 16 16 16 15 14 14 13 12 11 10 9 9 8 7 7
18 18 19 21 23 26 27 27 27 27 26 24 22 20 20 18 16 15 12 12 12 12 13 13 13 14 14 14 15 15 16 17 17 17 17 17 17 17 16 16 15 14 14 13 12 11 10 9 9
18 18 19 21 23 26 27 27 27 27 27 25 23 22 21 19 17 16 15 14 13 14 14 14 15 15 15 16 16 16 17 17 18 18 19 18 18 18 18 17 17 16 16 15 14 13 12 11 11
17 17 19 21 24 26 26 27 27 27 26 26 25 24 21 18 17 17 17 16 16 16 15 16 16 17 17 17 17 17 18 19 19 20 20 20 19 19 19 18 18 17 17 16 16 15 14 14 12
17 18 21 23 24 25 26 27 27 27 27 26 26 25 23 21 19 19 19 18 17 17 16 17 17 17 18 18 18 19 19 20 21 21 21 21 21 21 20 20 20 19 18 18 17 16 16 15 14
17 20 21 22 23 23 25 26 26 27 28 27 26 26 24 23 22 21 20 19 19 18 18 18 18 19 19 20 20 20 20 21 22 22 22 22 23 23 22 22 22 21 20 19 19 18 17 17 16
17 19 21 21 22 22 24 25 26 27 28 27 27 26 25 25 24 23 23 22 21 20 19 20 20 19 20 21 22 22 22 23 23 24 24 23 24 24 23 23 23 22 21 21 20 19 19 19 18
17 18 19 20 21 22 23 25 26 27 27 27 27 27 27 27 26 26 25 24 23 22 22 21 22 22 22 22 23 23 23 24 24 24 25 25 25 25 24 24 24 24 23 22 22 21 21 20 20
16 17 18 19 20 21 23 24 25 26 26 26 26 26 27 27 27 26 26 26 25 24 24 24 24 25 25 25 25 25 26 26 25 25 26 26 27 27 27 27 26 25 24 23 23 22 22 22 21
15 16 17 19 19 20 21 23 24 24 24 25 25 26 27 27 27 26 26 26 26 25 25 25 25 26 26 27 27 27 27 27 27 27 28 28 29 29 29 29 28 27 26 25 24 24 24 24 24
13 14 15 17 18 19 18 21 21 22 23 24 25 26 27 26 26 26 26 26 25 26 26 26 26 26 27 28 28 28 28 28 29 29 30 30 30 30 30 30 30 30 29 27 26 26 25 26 25
12 13 14 16 16 17 17 20 19 20 21 22 23 24 25 25 25 25 25 25 25 26 26 26 27 28 28 29 29 29 29 29 30 30 31 31 31 31 31 31 32 32 32 30 28 27 27 27 27
12 13 13 14 15 15 16 18 18 19 20 21 22 22 23 23 24 24 25 26 26 26 27 27 27 28 29 30 31 31 31 31 31 32 31 31 32 32 31 31 34 33 32 32 31 30 29 29 30
12 12 12 13 12 13 14 15 16 17 18 19 20 21 21 22 23 24 25 26 26 27 27 28 28 28 29 30 31 32 32 33 32 32 32 31 32 33 32 32 34 34 32 33 32 32 32 31 30
10 9 10 11 12 12 13 14 15 16 17 18 18 19 21 22 23 23 24 25 26 26 27 28 29 28 29 30 31 33 33 34 34 33 33 32 32 32 32 32 33 34 33 33 33 33 33 33 33
10 9 10 11 11 11 12 13 15 16 17 18 19 20 20 21 22 23 24 25 25 26 27 27 28 27 28 29 30 31 31 32 32 33 33 32 32 32 33 32 33 35 35 34 34 34 33 34 34
9 10 9 9 8 11 10 10 15 15 16 18 18 19 20 20 21 21 22 23 24 25 26 26 26 27 28 28 29 30 30 31 32 32 32 32 31 31 32 32 33 34 35 35 35 34 35 34 34
9 8 8 8 8 9 10 8 13 13 14 16 17 17 18 19 20 20 21 22 22 23 24 24 25 26 27 27 27 28 29 30 31 31 31 31 31 31 32 32 33 34 35 35 34 34 34 33 33
7 6 6 7 7 8 9 8 10 11 12 13 14 15 16 18 19 19 19 20 20 21 22 23 24 24 25 25 26 27 27 28 29 30 30 30 31 31 32 32 32 33 33 33 32 33 33 33 32
7 6 5 6 7 8 10 8 9 11 11 13 14 15 15 17 17 18 19 19 19 19 20 21 22 22 23 23 24 25 25 25 26 27 27 28 29 31 31 32 32 33 32 32 31 32 33 33 32
7 7 7 7 7 9 11 9 10 10 11 13 14 14 15 16 17 17 16 17 17 18 19 20 21 21 22 22 22 23 24 24 23 24 25 26 27 28 29 31 31 32 32 31 30 30 31 31 32
8 8 9 8 8 9 10 11 11 11 12 13 14 14 15 16 16 15 15 16 17 17 18 19 20 20 20 21 21 22 22 23 22 22 23 24 25 27 28 29 30 31 31 32 31 30 30 31 31
9 9 9 7 8 8 9 11 11 12 13 14 14 15 16 16 16 16 16 16 17 18 18 19 19 19 18 19 20 20 21 22 22 22 23 24 24 25 26 27 28 29 30 31 30 29 28 29 29
11 10 9 9 10 9 9 11 13 14 14 15 15 16 17 17 17 17 17 17 17 18 19 19 19 19 19 20 20 21 21 21 22 22 23 24 24 25 25 26 26 27 28 28 28 28 28 28 28
12 11 11 11 12 11 11 13 14 15 16 16 17 18 18 18 18 18 18 18 18 18 19 20 20 21 21 21 21 21 21 22 22 22 22 22 23 24 25 25 25 26 27 27 27 27 27 28 27
Wind_Direction
255 252 250 247 245 243 239 240 240 239 236 232 224 215 209 207 205 206 211 208 206 198 191 187 187 190 197 207 213 217 218 215 209 206 204 202 201 196 190 182 171 159 140 113 81 50 30 11 353
255 252 249 246 242 238 237 238 237 238 238 233 226 222 218 217 216 216 215 212 213 211 204 201 198 197 201 210 218 222 223 222 219 215 212 210 209 207 203 201 199 196 191 188 204 242 315 296 287
253 250 247 245 240 230 232 235 236 238 235 230 226 224 223 221 220 222 221 216 219 220 215 213 210 205 205 212 218 222 225 226 226 224 220 217 214 213 212 215 219 220 217 215 222 231 245 254 257
253 249 246 243 237 231 232 235 235 235 232 229 227 227 229 226 227 230 225 222 226 228 227 222 218 215 214 215 220 223 226 229 230 230 229 226 223 222 221 223 227 228 227 228 232 233 237 243 248
251 248 244 239 235 233 232 234 234 233 232 229 226 229 233 231 234 236 235 234 233 235 236 231 226 223 222 221 222 223 225 229 231 232 233 233 231 229 230 231 233 234 233 233 237 239 238 239 242
249 245 241 235 234 232 231 231 231 231 230 230 228 231 236 238 240 242 244 246 243 241 240 238 234 231 229 226 226 226 226 229 232 234 234 236 235 235 236 236 238 238 237 236 238 240 239 238 239
246 240 234 232 233 231 230 229 229 228 228 229 229 232 237 239 243 248 249 255 254 250 244 240 239 238 235 232 232 232 232 231 233 235 235 236 236 237 238 238 239 241 239 239 239 241 240 238 237
241 236 232 231 230 231 231 229 228 227 229 230 229 232 238 242 247 254 259 263 264 258 250 241 238 239 240 239 237 237 237 236 236 236 236 238 239 240 240 239 240 242 240 240 240 241 238 237 237
236 229 225 226 227 230 229 227 227 228 229 231 232 235 242 246 253 260 265 268 268 264 258 249 243 243 244 244 242 241 240 239 239 239 238 239 240 241 241 241 241 242 241 241 242 241 239 237 237
230 221 224 227 228 229 227 227 227 226 227 230 233 237 243 250 259 266 271 272 271 267 262 256 251 248 248 248 247 246 243 241 241 241 240 240 241 242 242 242 243 243 244 243 244 243 241 240 239
227 223 226 226 227 228 227 227 227 226 229 232 236 241 248 254 262 268 274 278 275 271 266 262 258 254 251 251 250 250 248 246 245 244 244 242 242 243 243 244 243 244 245 245 245 245 244 242 242
224 225 225 224 225 225 226 227 228 229 233 236 239 245 251 256 261 268 275 277 275 271 266 264 262 257 255 253 252 252 252 251 249 248 249 248 247 245 243 244 244 244 245 247 247 247 246 243 243
222 223 222 222 223 224 226 227 230 232 235 238 242 247 253 258 263 268 272 273 273 271 266 262 260 259 258 256 255 254 254 252 253 252 250 252 251 249 247 246 245 246 246 247 247 247 246 244 244
219 219 219 219 219 222 225 229 231 234 238 241 245 249 256 261 264 267 269 270 269 267 264 261 260 260 260 258 256 255 254 254 254 253 253 254 252 251 249 248 246 247 247 247 245 245 246 245 245
216 216 218 218 219 222 225 230 234 238 242 245 248 252 257 260 264 265 267 267 265 263 263 262 262 261 260 258 257 256 255 255 255 254 254 255 254 253 251 249 246 246 247 247 245 245 246 247 246
211 212 218 222 223 224 225 233 236 241 244 248 252 256 260 262 264 265 265 264 264 263 261 262 262 261 260 259 257 256 255 255 254 254 254 255 255 254 250 249 249 247 246 247 247 246 247 247 247
206 203 214 225 224 225 224 234 238 243 248 252 256 260 262 264 264 264 263 263 262 261 261 261 261 261 259 258 257 256 255 255 254 254 256 257 255 253 251 250 250 249 248 248 248 248 248 248 248
203 205 217 227 228 228 231 239 244 248 253 257 259 261 263 264 264 263 263 263 262 262 262 263 262 263 262 261 259 258 257 255 255 255 257 256 255 254 254 253 250 250 249 248 248 250 249 249 250
204 208 219 229 231 232 238 246 252 256 257 260 262 263 264 265 267 267 266 264 263 262 263 264 263 263 263 262 259 259 257 256 256 256 255 256 257 256 255 254 251 248 248 248 248 249 249 250 249
202 208 224 234 239 243 249 255 260 261 260 263 265 266 267 268 268 269 267 265 263 262 263 265 265 264 262 261 259 259 258 257 258 258 257 258 257 255 255 253 250 248 248 248 249 250 249 250 250
203 208 228 242 250 253 257 265 265 262 261 264 267 268 268 267 269 270 269 267 265 264 263 264 263 262 261 260 259 258 257 258 256 256 257 256 255 255 255 253 250 249 249 249 249 248 249 249 249
211 223 234 248 253 261 261 263 271 263 264 265 267 269 270 270 272 275 274 269 266 266 265 264 264 263 261 259 258 257 257 258 257 257 255 255 254 254 253 253 251 249 249 250 251 250 248 248 248
216 227 239 250 251 260 271 260 270 271 270 269 270 273 274 275 277 280 278 272 268 266 266 265 264 264 263 260 258 258 258 258 257 256 256 254 254 252 251 251 251 251 250 250 249 249 249 249 249
221 233 249 256 262 266 267 265 271 278 276 275 276 279 279 280 281 281 281 277 271 269 267 265 265 264 264 261 260 259 259 258 257 256 256 254 252 250 251 252 254 252 251 249 248 249 249 248 249
229 237 261 267 267 264 269 272 268 278 282 283 285 288 288 287 287 285 283 281 275 273 270 270 268 266 264 262 260 260 260 259 257 257 256 255 254 250 249 250 251 251 251 251 250 249 249 248 247
241 236 241 248 254 262 278 277 277 283 286 289 292 296 296 296 295 292 288 286 282 279 276 275 272 268 267 266 263 262 261 259 259 257 255 255 255 252 250 250 250 250 251 251 250 250 249 249 246
246 245 248 258 260 264 274 277 279 285 291 295 296 297 300 301 298 296 292 289 287 284 281 279 274 272 271 269 266 266 265 263 260 259 256 255 254 253 253 252 250 249 250 249 249 249 249 248 246
245 255 262 264 265 270 278 284 280 285 291 295 298 300 302 303 301 299 297 293 289 286 285 282 278 276 274 271 268 267 266 266 263 260 259 259 257 256 254 252 250 249 250 250 249 248 248 248 247
253 258 264 269 265 268 275 278 278 284 289 293 297 300 302 303 301 300 300 298 294 290 286 283 280 278 276 274 271 270 269 268 266 261 259 258 257 256 253 251 250 250 250 250 247 248 250 250 249
253 258 267 274 278 276 278 281 280 284 288 292 297 299 301 303 303 302 301 299 296 293 291 287 283 281 279 276 275 273 270 269 268 262 259 258 258 257 255 252 251 250 250 249 248 248 250 250 248